Location: St Paul
(33.4390°N, 83.7350°W)
Time: 18:49:45
(UTC-05:00)

SL-16 R/B - Pass Details

Date: 06 October 2017
Orbit: 842 x 846 km, 71.0° (Epoch: 15 December)

Event Time Altitude Azimuth Distance (km) Brightness Sun altitude
Rises 21:11:42 0° 346° (NNW) 3,407 5.7 -25.6°
Reaches altitude 10° 21:14:17 10° 354° (N) 2,470 4.8 -26.2°
Enters shadow 21:17:46 33° 20° (NNE) 1,402 3.2 -26.9°
